• In Hungary
  • List of Countries
  • For 7 days
  • Water Temperature
  • Satellite Maps
  • Weather Map
  • News
  • Weather Widgets
  • user-avatar
    Login

    Hourly Weather Zarechnoe

    Today, 21 September, Friday

    Time Temperature Precipitation Wind Pressure Humidity
    00:00 +9°C° 0 mm 2 mps 749 mmHg 67%
    01:00 +10°C° 0 mm 1 mps 749 mmHg 69%
    02:00 +10°C° 0 mm 1 mps 749 mmHg 68%
    03:00 +10°C° 0 mm 1 mps 749 mmHg 67%
    04:00 +10°C° 0 mm 1 mps 749 mmHg 66%
    05:00 +11°C° 0 mm 1 mps 749 mmHg 66%
    06:00 +11°C° 0 mm 1 mps 749 mmHg 66%
    07:00 +12°C° 0 mm 1 mps 749 mmHg 66%
    08:00 +12°C° 0.1 mm 1 mps 750 mmHg 67%
    09:00 +12°C° 0.1 mm 2 mps 750 mmHg 68%
    10:00 +13°C° 0 mm 2 mps 750 mmHg 64%
    11:00 +14°C° 0 mm 3 mps 750 mmHg 56%
    12:00 +15°C° 0 mm 4 mps 750 mmHg 49%
    13:00 +18°C° 0 mm 4 mps 750 mmHg 42%
    14:00 +18°C° 0 mm 4 mps 751 mmHg 40%
    15:00 +17°C° 0 mm 5 mps 751 mmHg 39%
    16:00 +17°C° 0 mm 5 mps 751 mmHg 37%
    17:00 +17°C° 0 mm 4 mps 752 mmHg 43%
    18:00 +14°C° 0 mm 4 mps 752 mmHg 48%
    19:00 +12°C° 0 mm 3 mps 753 mmHg 54%
    20:00 +12°C° 0 mm 3 mps 753 mmHg 57%
    21:00 +11°C° 0 mm 3 mps 753 mmHg 61%
    22:00 +10°C° 0 mm 3 mps 754 mmHg 64%
    23:00 +9°C° 0 mm 3 mps 754 mmHg 67%

    Tomorrow, 22 September, Saturday

    Time Temperature Precipitation Wind Pressure Humidity
    00:00 +9°C° 0 mm 2 mps 754 mmHg 69%
    01:00 +8°C° 0 mm 2 mps 755 mmHg 71%
    02:00 +8°C° 0 mm 2 mps 755 mmHg 73%
    03:00 +8°C° 0 mm 2 mps 755 mmHg 75%
    04:00 +7°C° 0 mm 2 mps 756 mmHg 77%
    05:00 +7°C° 0 mm 2 mps 756 mmHg 77%
    06:00 +7°C° 0 mm 2 mps 756 mmHg 78%
    07:00 +8°C° 0 mm 2 mps 757 mmHg 78%
    08:00 +10°C° 0 mm 2 mps 757 mmHg 70%
    09:00 +13°C° 0 mm 2 mps 757 mmHg 62%
    10:00 +15°C° 0 mm 2 mps 757 mmHg 55%
    11:00 +17°C° 0 mm 3 mps 757 mmHg 52%
    12:00 +18°C° 0 mm 3 mps 757 mmHg 49%
    13:00 +20°C° 0 mm 3 mps 757 mmHg 47%
    14:00 +20°C° 0 mm 3 mps 757 mmHg 49%
    15:00 +21°C° 0 mm 3 mps 757 mmHg 51%
    16:00 +21°C° 0 mm 3 mps 757 mmHg 53%
    17:00 +20°C° 0 mm 3 mps 757 mmHg 60%
    18:00 +18°C° 0 mm 2 mps 757 mmHg 68%
    19:00 +17°C° 0 mm 2 mps 757 mmHg 75%
    20:00 +16°C° 0 mm 1 mps 757 mmHg 78%
    21:00 +16°C° 0 mm 1 mps 757 mmHg 81%
    22:00 +15°C° 0 mm 1 mps 757 mmHg 84%
    23:00 +15°C° 0 mm 1 mps 757 mmHg 85%

    Day after tomorrow, 23 September, Sunday

    Time Temperature Precipitation Wind Pressure Humidity
    00:00 +15°C° 0 mm 1 mps 757 mmHg 86%
    01:00 +15°C° 0 mm 2 mps 757 mmHg 87%
    02:00 +15°C° 0 mm 2 mps 757 mmHg 87%
    03:00 +14°C° 0 mm 2 mps 757 mmHg 88%
    04:00 +14°C° 0 mm 2 mps 757 mmHg 89%
    05:00 +14°C° 0 mm 2 mps 757 mmHg 89%
    06:00 +14°C° 0 mm 2 mps 757 mmHg 89%
    07:00 +14°C° 0 mm 2 mps 757 mmHg 89%
    08:00 +16°C° 0 mm 2 mps 757 mmHg 81%
    09:00 +18°C° 0 mm 2 mps 757 mmHg 73%
    10:00 +20°C° 0 mm 2 mps 757 mmHg 65%
    11:00 +21°C° 0 mm 2 mps 756 mmHg 60%
    12:00 +23°C° 0 mm 2 mps 756 mmHg 56%
    13:00 +25°C° 0 mm 2 mps 756 mmHg 52%
    14:00 +25°C° 0 mm 2 mps 756 mmHg 50%
    15:00 +25°C° 0 mm 2 mps 755 mmHg 49%
    16:00 +25°C° 0 mm 2 mps 755 mmHg 47%
    17:00 +24°C° 0 mm 2 mps 755 mmHg 51%
    18:00 +23°C° 0 mm 2 mps 755 mmHg 56%
    19:00 +20°C° 0 mm 2 mps 755 mmHg 60%
    20:00 +19°C° 0 mm 2 mps 755 mmHg 63%
    21:00 +19°C° 0 mm 2 mps 754 mmHg 65%
    22:00 +18°C° 0 mm 2 mps 754 mmHg 67%
    23:00 +18°C° 0 mm 2 mps 754 mmHg 68%

    24 September, Monday

    Time Temperature Precipitation Wind Pressure Humidity
    00:00 +17°C° 0 mm 2 mps 754 mmHg 69%
    01:00 +17°C° 0 mm 2 mps 753 mmHg 70%
    02:00 +16°C° 0 mm 3 mps 753 mmHg 71%
    03:00 +16°C° 0 mm 3 mps 753 mmHg 72%
    04:00 +16°C° 0 mm 3 mps 753 mmHg 73%
    05:00 +14°C° 0 mm 3 mps 752 mmHg 74%
    06:00 +14°C° 0 mm 3 mps 752 mmHg 75%
    07:00 +14°C° 0 mm 4 mps 752 mmHg 76%
    08:00 +17°C° 0 mm 5 mps 752 mmHg 65%
    09:00 +20°C° 0 mm 6 mps 751 mmHg 53%
    10:00 +22°C° 0 mm 7 mps 751 mmHg 42%
    11:00 +23°C° 0 mm 8 mps 750 mmHg 38%
    12:00 +24°C° 0 mm 8 mps 750 mmHg 35%
    13:00 +24°C° 0 mm 9 mps 749 mmHg 31%
    14:00 +24°C° 0 mm 8 mps 748 mmHg 30%
    15:00 +26°C° 0 mm 8 mps 748 mmHg 30%
    16:00 +26°C° 0 mm 8 mps 747 mmHg 29%
    17:00 +23°C° 0.1 mm 7 mps 747 mmHg 34%
    18:00 +22°C° 0.1 mm 6 mps 747 mmHg 39%
    19:00 +21°C° 0.1 mm 5 mps 747 mmHg 44%
    20:00 +19°C° 0.5 mm 4 mps 747 mmHg 56%
    21:00 +18°C° 0.5 mm 4 mps 747 mmHg 68%
    22:00 +17°C° 0.5 mm 3 mps 747 mmHg 80%
    23:00 +16°C° 0.1 mm 3 mps 748 mmHg 81%

    25 September, Tuesday

    Time Temperature Precipitation Wind Pressure Humidity
    00:00 +14°C° 0.1 mm 4 mps 748 mmHg 82%
    01:00 +14°C° 0.1 mm 4 mps 748 mmHg 83%
    02:00 +13°C° 0 mm 4 mps 748 mmHg 83%
    03:00 +12°C° 0 mm 4 mps 748 mmHg 83%
    04:00 +11°C° 0 mm 4 mps 749 mmHg 84%
    05:00 +11°C° 0 mm 3 mps 749 mmHg 84%
    06:00 +10°C° 0 mm 2 mps 749 mmHg 85%
    07:00 +10°C° 0 mm 2 mps 750 mmHg 86%
    08:00 +12°C° 0 mm 2 mps 750 mmHg 79%
    09:00 +12°C° 0 mm 3 mps 750 mmHg 72%
    10:00 +14°C° 0 mm 3 mps 750 mmHg 64%
    11:00 +15°C° 0 mm 4 mps 750 mmHg 58%
    12:00 +17°C° 0 mm 4 mps 750 mmHg 51%
    13:00 +18°C° 0 mm 4 mps 750 mmHg 44%
    14:00 +18°C° 0 mm 4 mps 750 mmHg 43%
    15:00 +19°C° 0 mm 4 mps 750 mmHg 41%
    16:00 +19°C° 0 mm 4 mps 750 mmHg 40%
    17:00 +18°C° 0 mm 4 mps 750 mmHg 41%
    18:00 +18°C° 0 mm 4 mps 750 mmHg 42%
    19:00 +17°C° 0 mm 4 mps 750 mmHg 43%
    20:00 +16°C° 0 mm 5 mps 750 mmHg 45%
    21:00 +15°C° 0 mm 5 mps 749 mmHg 46%
    22:00 +15°C° 0 mm 5 mps 749 mmHg 48%
    23:00 +15°C° 0 mm 6 mps 749 mmHg 45%

    26 September, Wednesday

    Time Temperature Precipitation Wind Pressure Humidity
    00:00 +16°C° 0 mm 7 mps 749 mmHg 42%
    01:00 +16°C° 0 mm 8 mps 749 mmHg 39%
    02:00 +16°C° 0.1 mm 8 mps 749 mmHg 44%
    03:00 +15°C° 0.1 mm 7 mps 749 mmHg 48%
    04:00 +15°C° 0.1 mm 7 mps 749 mmHg 52%
    05:00 +14°C° 0.3 mm 7 mps 749 mmHg 60%
    06:00 +14°C° 0.3 mm 6 mps 749 mmHg 68%
    07:00 +13°C° 0.3 mm 6 mps 750 mmHg 75%
    08:00 +13°C° 0.1 mm 6 mps 750 mmHg 74%
    09:00 +11°C° 0.1 mm 6 mps 750 mmHg 73%
    10:00 +11°C° 0.1 mm 6 mps 750 mmHg 72%
    11:00 +11°C° 0 mm 7 mps 751 mmHg 70%
    12:00 +11°C° 0 mm 7 mps 751 mmHg 67%
    13:00 +12°C° 0 mm 7 mps 751 mmHg 65%
    14:00 +12°C° 0 mm 7 mps 752 mmHg 62%
    15:00 +12°C° 0 mm 7 mps 752 mmHg 60%
    16:00 +12°C° 0 mm 7 mps 752 mmHg 58%
    17:00 +13°C° 0 mm 6 mps 753 mmHg 58%
    18:00 +12°C° 0 mm 5 mps 753 mmHg 59%
    19:00 +12°C° 0 mm 4 mps 753 mmHg 60%
    20:00 +11°C° 0 mm 4 mps 753 mmHg 61%
    21:00 +11°C° 0 mm 3 mps 754 mmHg 63%
    22:00 +10°C° 0 mm 3 mps 754 mmHg 64%
    23:00 +10°C° 0 mm 3 mps 754 mmHg 65%
    Show more